User: anonymous   Login
Location: ????????
(37.9452°N, 23.1472°E)
Time: 20:10:10
(UTC+00:00)
Language:

OPS 3367A - Orbit

View from above orbital plane
View from above orbital plane
View from above satellite
View from above satellite

Ground track
Ground track

The orbit data is extracted from the following two-line orbital elements,

1   734U 64002B   24263.44326924  .00000387  00000-0  17029-3 0  9997
2   734  98.9787 163.6124 0013575 229.6752 130.3244 14.29336655158028
Epoch (UTC): 19 September 2024 10:38:18
Eccentricity: 0.0013575
inclination: 98.9787°
perigee height: 784 km
apogee height: 803 km
right ascension of ascending node: 163.6124°
argument of perigee: 229.6752°
revolutions per day: 14.29336655
mean anomaly at epoch: 130.3244°
orbit number at epoch: 15802

The dashed part of the orbit path shows where the satellite is in the earth's shadow,  

DLR